Find Kosmos-569

NORAD ID: 6680 Int'l Des: 1973-037 Owner: GUKOSR Country: SU operational
LEOCIRCULAR

Live-Position

3D-Globus wird geladen...

Über Kosmos-569

Beschreibung wird geladen...

Nächste Überflüge

Passes for default location (London). Set your location on the main map for personalized predictions.

Höhenverlauf

Loading altitude history...

Zweizeiliger Elementsatz

1 06680U 73037F 26106.28564191 -.00000023 00000-0 -39213-4 0 9990
2 06680 74.0191 218.3770 0078714 28.9782 359.5678 12.61177489433262
Epoch: 16. Apr. 2026 • Age: 6 hours

Aktueller Status

Höhe 1360.0 km
Geschwindigkeit 7.21 km/s
Subsatellitenpunkt 29.51°N, 166°W
Typ other

Most Searched